Lancaster, OH

2:06 PM EST on February 20, 2017 (GMT -0500)
Fairfield County

Weather History for KLHQ - August, 2014

Change the Weather History Date:

Wednesday, August 27, 2014

  Actual Average Record
Temperature  
Mean Temperature 76 °F -  
Max Temperature 88 °F 82 °F 97 °F (1953)
Min Temperature 64 °F 58 °F 40 °F (1945)
Cooling Degree Days 11    
Growing Degree Days 26 (Base 50)    
Moisture  
Dew Point 69 °F    
Average Humidity 80    
Maximum Humidity 93    
Minimum Humidity 55    
Precipitation  
Precipitation 0.23 in - - ()
Sea Level Pressure  
Sea Level Pressure 30.05 in    
Wind  
Wind Speed 2 mph (NNW)    
Max Wind Speed 13 mph    
Max Gust Speed 28 mph    
Visibility 7 miles    
Events Rain , Thunderstorm    
Averages and records for this station are not official NWS values.
T = Trace of Precipitation, MM = Missing Value Source: NWS Daily Summary

Daily Weather History Graph

Daily Weather History Graph

Search for Another Location

Airport or City:

Trip Planner

Search our weather history database for the weather conditions in past years. The results will help you decide how hot, cold, wet, or windy it might be!

Date:

Astronomy

Aug. 27, 2014 Rise Set
Actual Time 6:53 AM EDT 8:09 PM EDT
Civil Twilight 6:25 AM EDT 8:37 PM EDT
Nautical Twilight 5:52 AM EDT 9:10 PM EDT
Astronomical Twilight 5:17 AM EDT 9:45 PM EDT
Moon 8:48 AM EDT (8/27) 9:01 PM EDT (8/27)
Length of Visible Light 14h 11m
Length of Day
13h 15m
Waxing Crescent, 4% of the Moon is Illuminated
Aug 27
Waxing Crescent
Sep 2
First Quarter
Sep 8
Full
Sep 15
Last Quarter
Sep 24
New

Hourly Weather History & Observations

Time (EDT) Temp. Heat Index Dew Point Humidity Pressure Visibility Wind Dir Wind Speed Gust Speed Precip Events Conditions
1:53 AM 66.9 °F - 64.9 °F 93% 30.09 in 6.0 mi Calm Calm - N/A   Clear
2:53 AM 66.9 °F - 64.0 °F 90% 30.07 in 7.0 mi Calm Calm - N/A   Clear
3:53 AM 66.9 °F - 64.0 °F 90% 30.07 in 7.0 mi Calm Calm - N/A   Clear
4:53 AM 64.9 °F - 63.0 °F 93% 30.07 in 7.0 mi Calm Calm - N/A   Clear
5:53 AM 64.9 °F - 63.0 °F 93% 30.08 in 5.0 mi Calm Calm - N/A   Clear
6:53 AM 64.9 °F - 62.1 °F 90% 30.09 in 5.0 mi Calm Calm - N/A   Clear
7:53 AM 69.1 °F - 66.0 °F 90% 30.09 in 5.0 mi Calm Calm - N/A   Clear
8:53 AM 73.9 °F - 66.9 °F 79% 30.09 in 9.0 mi Calm Calm - N/A   Scattered Clouds
9:53 AM 78.1 °F - 69.1 °F 74% 30.08 in 10.0 mi Calm Calm - N/A   Mostly Cloudy
10:53 AM 82.0 °F 86.3 °F 71.1 °F 69% 30.08 in 10.0 mi Variable 4.6 mph - N/A   Clear
11:53 AM 82.0 °F 86.3 °F 71.1 °F 69% 30.09 in 10.0 mi WSW 4.6 mph - N/A   Partly Cloudy
12:53 PM 84.9 °F 90.1 °F 71.1 °F 63% 30.07 in 10.0 mi Variable 3.5 mph - N/A   Scattered Clouds
1:53 PM 86.0 °F 90.7 °F 70.0 °F 59% 30.05 in 10.0 mi Variable 4.6 mph - N/A   Partly Cloudy
3:53 PM 88.0 °F 92.9 °F 70.0 °F 55% 30.01 in 10.0 mi Variable 5.8 mph - N/A   Partly Cloudy
4:27 PM 87.1 °F 93.6 °F 72.0 °F 61% 30.03 in 9.0 mi West 5.8 mph - 0.00 in Rain , Thunderstorm Light Rain
4:53 PM 88.0 °F 94.7 °F 72.0 °F 59% 30.00 in 10.0 mi WSW 10.4 mph - 0.00 in Thunderstorm Mostly Cloudy
5:23 PM 84.0 °F 88.4 °F 70.0 °F 63% 30.03 in 8.0 mi WNW 4.6 mph - 0.01 in Thunderstorm Thunderstorm
5:42 PM 75.0 °F - 72.0 °F 90% 30.04 in 2.0 mi NNW 11.5 mph 27.6 mph 0.06 in Rain , Thunderstorm Heavy Thunderstorms and Rain
5:45 PM 75.0 °F - 71.1 °F 87% 30.05 in 1.0 mi WNW 12.7 mph 24.2 mph 0.16 in Rain , Thunderstorm Heavy Thunderstorms and Rain
5:53 PM 73.9 °F - 71.1 °F 91% 30.01 in 0.8 mi East 4.6 mph - 0.23 in Rain , Thunderstorm Heavy Thunderstorms and Rain
5:56 PM 73.9 °F - 71.1 °F 91% 30.03 in 1.2 mi NE 4.6 mph - 0.00 in Rain , Thunderstorm Light Thunderstorms and Rain
5:59 PM 75.0 °F - 72.0 °F 90% 30.03 in 4.0 mi NNE 5.8 mph - 0.00 in Rain , Thunderstorm Light Thunderstorms and Rain
6:12 PM 77.0 °F - 71.1 °F 82% 30.03 in 10.0 mi Calm Calm - 0.00 in   Scattered Clouds
6:53 PM 80.1 °F 83.8 °F 72.0 °F 76% 29.99 in 10.0 mi Variable 4.6 mph - 0.00 in   Clear
7:53 PM 77.0 °F - 72.0 °F 84% 30.00 in 10.0 mi Calm Calm - N/A   Clear
8:53 PM 73.9 °F - 71.1 °F 91% 30.02 in 9.0 mi NW 3.5 mph - N/A   Clear
9:53 PM 73.0 °F - 69.1 °F 87% 30.04 in 9.0 mi NNE 4.6 mph - N/A   Clear
10:53 PM 72.0 °F - 68.0 °F 87% 30.05 in 8.0 mi NE 5.8 mph - N/A   Clear
11:53 PM 69.1 °F - 64.0 °F 84% 30.06 in 9.0 mi North 3.5 mph - N/A   Clear